User: anonymous   Login
Location: Theydon Bois
(51.6750°N, 0.1050°E)
Time: 18:06:53
(UTC+00:00)
Language:

NOSS 2-1 (D) - Orbit

View from above orbital plane
View from above orbital plane
View from above satellite
View from above satellite

Ground track
Ground track

The orbit data is extracted from the following two-line orbital elements,

1 20692U 90050D   17363.21244238 0.00000000  00000-0  00000-0 0    02
2 20692  63.3430  47.8907 0808500  33.6088 326.3912 13.41758839    09
Epoch (UTC): 29 December 2017 05:05:55
Eccentricity: 0.0808500
inclination: 63.3430°
perigee height: 498 km
apogee height: 1707 km
right ascension of ascending node: 47.8907°
argument of perigee: 33.6088°
revolutions per day: 13.41758839
mean anomaly at epoch: 326.3912°
orbit number at epoch: 0

The dashed part of the orbit path shows where the satellite is in the earth's shadow,  

DLR